CW9560 Weather Reports


Display with metric or nautical units.
time (UTC)temp
F
wind
direction
speed
MPH
gust
MPH
rain 1hr
in
rain 24hr
in
rain mn
in
humidity
%
barometer
mb
20190121052006 28 69 3.0 3.0 0.00 0.00 0.00 80 1021.0
20190121051506 28 70 2.0 3.0 0.00 0.00 0.00 80 1021.0
20190121051005 28 71 2.0 3.0 0.00 0.00 0.00 80 1021.1
20190121050505 28 71 2.0 3.0 0.00 0.00 0.00 80 1021.1
20190121050006 28 71 2.0 3.0 0.00 0.00 0.00 80 1021.4
20190121045505 28 71 1.0 3.0 0.00 0.00 0.00 80 1021.4
20190121045006 28 71 1.0 3.0 0.00 0.00 0.00 80 1021.5
20190121044506 28 77 2.0 3.0 0.00 0.00 0.00 80 1021.6
20190121044006 27 78 1.0 3.0 0.00 0.00 0.00 80 1021.7
20190121043505 27 78 1.0 3.0 0.00 0.00 0.00 80 1021.6
20190121043006 27 78 1.0 3.0 0.00 0.00 0.00 80 1021.6
20190121042505 27 78 2.0 3.0 0.00 0.00 0.00 80 1021.7
20190121042005 27 78 3.0 3.0 0.00 0.00 0.00 80 1021.7
20190121041506 27 78 3.0 3.0 0.00 0.00 0.00 80 1021.7
20190121041006 27 78 2.0 3.0 0.00 0.00 0.00 80 1021.8
20190121040506 27 78 3.0 3.0 0.00 0.00 0.00 80 1021.8
20190121040006 27 78 2.0 3.0 0.00 0.00 0.00 80 1021.8
20190121035505 27 78 2.0 6.0 0.00 0.00 0.00 80 1021.8
20190121035006 27 78 2.0 7.0 0.00 0.00 0.00 80 1021.9
20190121034505 28 89 3.0 7.0 0.00 0.00 0.00 80 1021.8
20190121034006 28 77 4.0 7.0 0.00 0.00 0.00 80 1022.0
20190121033505 28 77 4.0 7.0 0.00 0.00 0.00 80 1021.9
20190121033007 28 92 3.0 7.0 0.00 0.00 0.00 80 1021.9
20190121032505 28 86 5.0 6.0 0.00 0.00 0.00 80 1021.9
20190121032006 28 77 3.0 6.0 0.00 0.00 0.00 80 1022.1
20190121031505 28 66 5.0 6.0 0.00 0.00 0.00 80 1022.2
20190121031005 27 101 4.0 6.0 0.00 0.00 0.00 81 1022.3
20190121030505 28 43 2.0 3.0 0.00 0.00 0.00 81 1022.3
20190121030006 28 99 1.0 3.0 0.00 0.00 0.00 81 1022.4
20190121025505 28 62 2.0 5.0 0.00 0.00 0.00 81 1022.4
20190121025005 28 60 3.0 5.0 0.00 0.00 0.00 81 1022.4
20190121024507 28 101 2.0 3.0 0.00 0.00 0.00 80 1022.5
20190121024006 28 92 3.0 3.0 0.00 0.00 0.00 81 1022.5
20190121023505 28 76 2.0 3.0 0.00 0.00 0.00 81 1022.5
20190121023006 28 59 3.0 3.0 0.00 0.00 0.00 81 1022.6
20190121022506 28 85 2.0 3.0 0.00 0.00 0.00 81 1022.7
20190121022005 28 86 2.0 3.0 0.00 0.00 0.00 81 1022.8
20190121021506 28 86 2.0 5.0 0.00 0.00 0.00 81 1022.7
20190121021005 28 82 3.0 5.0 0.00 0.00 0.00 81 1022.8
20190121020505 28 60 3.0 3.0 0.00 0.00 0.00 81 1022.8
20190121020006 28 44 2.0 6.0 0.00 0.00 0.00 81 1022.8
20190121015505 28 55 2.0 6.0 0.00 0.00 0.00 81 1022.9
20190121015006 29 101 2.0 6.0 0.00 0.00 0.00 81 1022.9
20190121014506 29 110 2.0 3.0 0.00 0.00 0.00 81 1022.9
20190121014005 28 68 2.0 3.0 0.00 0.00 0.00 82 1022.9
20190121013504 28 62 2.0 3.0 0.00 0.00 0.00 82 1022.9
20190121013005 28 69 3.0 3.0 0.00 0.00 0.00 82 1023.0
20190121012505 28 263 1.0 3.0 0.00 0.00 0.00 82 1023.1
20190121012005 28 263 1.0 3.0 0.00 0.00 0.00 82 1023.1
20190121011505 29 263 2.0 3.0 0.00 0.00 0.00 82 1023.2
20190121011005 29 263 1.0 2.0 0.00 0.00 0.00 82 1023.0
20190121010506 29 263 1.0 2.0 0.00 0.00 0.00 82 1023.1
20190121010006 29 263 0.0 0.0 0.00 0.00 0.00 82 1023.1
20190121005505 29 263 0.0 1.0 0.00 0.00 0.00 82 1023.1
20190121005005 29 263 0.0 2.0 0.00 0.00 0.00 82 1023.2
20190121004506 29 263 0.0 3.0 0.00 0.00 0.00 82 1023.2
20190121004006 30 263 2.0 3.0 0.00 0.00 0.00 82 1023.2
20190121003505 30 263 1.0 3.0 0.00 0.00 0.00 81 1023.1
20190121003006 31 263 1.0 3.0 0.00 0.00 0.00 81 1023.1
20190121002504 31 263 1.0 8.0 0.00 0.00 0.00 81 1023.2
20190121002005 32 263 2.0 9.0 0.00 0.00 0.00 82 1023.2
20190121001506 31 19 6.0 9.0 0.00 0.00 0.00 82 1023.1
20190121001005 31 22 3.0 9.0 0.00 0.00 0.00 82 1023.2
20190121000505 31 12 3.0 5.0 0.00 0.00 0.00 82 1023.3
20190121000006 31 77 2.0 3.0 0.00 0.00 0.00 82 1023.3
20190120235506 31 28 3.0 5.0 0.00 0.00 0.00 82 1023.3
20190120235005 31 23 2.0 5.0 0.00 0.00 0.00 82 1023.3
20190120234505 30 33 2.0 5.0 0.00 0.00 0.00 82 1023.4
20190120234005 30 118 3.0 5.0 0.00 0.00 0.00 82 1023.5
20190120233505 30 33 2.0 6.0 0.00 0.00 0.00 82 1023.4
20190120233006 30 57 3.0 7.0 0.00 0.00 0.00 82 1023.5
20190120232505 30 58 5.0 7.0 0.00 0.00 0.00 82 1023.6
20190120232007 30 48 3.0 5.0 0.00 0.00 0.00 82 1023.5
20190120231505 31 69 3.0 7.0 0.00 0.00 0.00 82 1023.5
20190120231005 31 69 4.0 7.0 0.00 0.00 0.00 81 1023.5
20190120230505 32 60 4.0 6.0 0.00 0.00 0.00 82 1023.6
20190120230005 31 75 2.0 5.0 0.00 0.00 0.00 82 1023.6
20190120225505 31 32 3.0 5.0 0.00 0.00 0.00 82 1023.6
20190120225005 31 26 3.0 5.0 0.00 0.00 0.00 82 1023.6
20190120224506 31 27 2.0 3.0 0.00 0.00 0.00 82 1023.7
20190120224006 31 43 2.0 7.0 0.00 0.00 0.00 82 1023.6
20190120223505 31 42 3.0 7.0 0.00 0.00 0.00 82 1023.6
20190120223006 31 328 3.0 3.0 0.00 0.00 0.00 81 1023.6
20190120222505 31 190 0.0 5.0 0.00 0.00 0.00 80 1023.5
20190120222006 32 190 3.0 5.0 0.00 0.00 0.00 80 1023.4
20190120221505 32 16 2.0 3.0 0.00 0.00 0.00 80 1023.3
20190120221007 33 355 2.0 8.0 0.00 0.00 0.00 79 1023.4
20190120220506 33 136 3.0 8.0 0.00 0.00 0.00 79 1023.5
20190120220005 33 5 3.0 8.0 0.00 0.00 0.00 79 1023.3
20190120215505 33 12 5.0 8.0 0.00 0.00 0.00 79 1023.2
20190120215006 33 12 3.0 7.0 0.00 0.00 0.00 80 1023.2
20190120214505 33 4 3.0 3.0 0.00 0.00 0.00 80 1023.1
20190120214005 33 75 1.0 5.0 0.00 0.00 0.00 81 1023.1
20190120213505 33 75 2.0 5.0 0.00 0.00 0.00 81 1023.2
20190120213006 33 134 3.0 5.0 0.00 0.00 0.00 81 1023.1
20190120212505 33 83 2.0 3.0 0.00 0.00 0.00 80 1023.1
20190120212005 34 20 2.0 3.0 0.00 0.00 0.00 80 1023.1
20190120211505 34 86 2.0 3.0 0.00 0.00 0.00 80 1023.1
20190120211005 34 140 0.0 3.0 0.00 0.00 0.00 79 1023.2
20190120210505 34 140 1.0 3.0 0.00 0.00 0.00 79 1023.0
20190120210006 34 140 1.0 3.0 0.00 0.00 0.00 78 1022.8
20190120205505 35 140 1.0 3.0 0.00 0.00 0.00 77 1022.9
20190120205005 35 172 2.0 5.0 0.00 0.00 0.00 76 1022.9
20190120204506 36 172 2.0 12.0 0.00 0.00 0.00 74 1022.7
20190120204005 38 172 3.0 12.0 0.00 0.00 0.00 72 1022.7
20190120203506 37 300 6.0 12.0 0.00 0.00 0.00 74 1022.7
20190120203005 36 309 10.0 12.0 0.00 0.00 0.00 76 1022.6
20190120202505 36 345 2.0 3.0 0.00 0.00 0.00 75 1022.6
20190120202005 37 148 1.0 12.0 0.00 0.00 0.00 73 1022.7
20190120201507 38 188 2.0 14.0 0.00 0.00 0.00 73 1022.6
20190120201006 37 303 7.0 14.0 0.00 0.00 0.00 75 1022.3
20190120200504 36 306 8.0 12.0 0.00 0.00 0.00 78 1022.3
20190120200006 35 307 4.0 9.0 0.00 0.00 0.00 77 1022.3
20190120195504 36 264 3.0 6.0 0.00 0.00 0.00 77 1022.3
20190120195005 36 248 3.0 6.0 0.00 0.00 0.00 76 1022.2
20190120194506 37 247 3.0 10.0 0.00 0.00 0.00 74 1022.1
20190120194006 38 234 4.0 12.0 0.00 0.00 0.00 73 1021.9
20190120193505 38 283 5.0 12.0 0.00 0.00 0.00 74 1021.8
20190120193005 38 289 6.0 12.0 0.00 0.00 0.00 74 1021.8
20190120192505 38 306 4.0 10.0 0.00 0.00 0.00 75 1021.8
20190120192005 38 280 6.0 12.0 0.00 0.00 0.00 76 1021.6
20190120191508 37 287 7.0 12.0 0.00 0.00 0.00 79 1021.6
20190120191005 35 285 5.0 12.0 0.00 0.00 0.00 80 1021.5
20190120190504 34 296 6.0 9.0 0.00 0.00 0.00 80 1021.5
20190120190006 34 326 2.0 5.0 0.00 0.00 0.00 80 1021.4
20190120185504 34 338 2.0 5.0 0.00 0.00 0.00 79 1021.5
20190120185005 35 132 1.0 5.0 0.00 0.00 0.00 79 1021.4
20190120184505 35 148 2.0 3.0 0.00 0.00 0.00 78 1021.4
20190120184006 35 69 1.0 3.0 0.00 0.00 0.00 78 1021.4
20190120183505 35 69 2.0 3.0 0.00 0.00 0.00 78 1021.3
20190120183006 36 310 3.0 3.0 0.00 0.00 0.00 78 1021.2
20190120182506 36 242 2.0 3.0 0.00 0.00 0.00 77 1021.1
20190120182005 36 12 2.0 3.0 0.00 0.00 0.00 76 1021.1
20190120181505 37 66 0.0 5.0 0.00 0.00 0.00 76 1021.1
20190120181005 37 67 3.0 8.0 0.00 0.00 0.00 77 1021.1
20190120180505 37 57 2.0 8.0 0.00 0.00 0.00 76 1021.0
20190120180006 37 93 3.0 7.0 0.00 0.00 0.00 76 1020.9
20190120175505 37 150 2.0 3.0 0.00 0.00 0.00 75 1020.8
20190120175006 38 151 0.0 1.0 0.00 0.00 0.00 74 1020.9
20190120174506 38 151 0.0 3.0 0.00 0.00 0.00 73 1020.9
20190120174006 39 151 1.0 3.0 0.00 0.00 0.00 72 1021.0
20190120173505 39 151 2.0 8.0 0.00 0.00 0.00 71 1021.0
20190120173006 39 339 3.0 8.0 0.00 0.00 0.00 72 1020.9
20190120172505 39 342 2.0 6.0 0.00 0.00 0.00 73 1020.8
20190120172005 38 331 3.0 8.0 0.00 0.00 0.00 73 1020.8
20190120171506 38 337 4.0 8.0 0.00 0.00 0.00 73 1020.8
20190120171006 38 25 5.0 8.0 0.00 0.00 0.00 72 1020.7
20190120170505 39 18 3.0 8.0 0.00 0.00 0.00 71 1020.7
20190120170005 40 25 6.0 10.0 0.00 0.00 0.00 69 1020.6
20190120165505 40 327 5.0 10.0 0.00 0.00 0.00 69 1020.4
20190120165006 40 327 2.0 7.0 0.00 0.00 0.00 70 1020.4
20190120164506 41 341 3.0 8.0 0.00 0.00 0.00 69 1020.3
20190120164007 41 302 3.0 8.0 0.00 0.00 0.00 68 1020.2
20190120163504 41 300 3.0 8.0 0.00 0.00 0.00 68 1020.1
20190120163005 42 313 4.0 12.0 0.00 0.00 0.00 67 1020.1
20190120162505 42 304 5.0 12.0 0.00 0.00 0.00 67 1020.0
20190120162005 42 303 6.0 12.0 0.00 0.00 0.00 67 1019.8
20190120161505 42 309 8.0 16.0 0.00 0.00 0.00 66 1019.7
20190120161005 42 276 7.0 16.0 0.00 0.00 0.00 67 1019.6
20190120160504 42 263 8.0 16.0 0.00 0.00 0.00 68 1019.5
20190120160005 42 293 8.0 16.0 0.00 0.00 0.00 68 1019.5
20190120155505 42 293 8.0 16.0 0.00 0.00 0.00 68 1019.4
20190120155005 42 308 6.0 15.0 0.00 0.00 0.00 68 1019.3
20190120154505 43 268 9.0 15.0 0.00 0.00 0.00 69 1019.0
20190120154006 43 268 10.0 15.0 0.00 0.00 0.00 70 1018.9
20190120153505 43 310 6.0 15.0 0.00 0.00 0.00 71 1018.6
20190120153006 43 324 9.0 15.0 0.00 0.00 0.00 71 1018.6
20190120152505 43 312 7.0 14.0 0.00 0.00 0.00 73 1018.5
20190120152005 43 318 7.0 13.0 0.00 0.00 0.00 76 1018.6
20190120151505 43 293 5.0 15.0 0.00 0.00 0.00 76 1018.6
20190120151005 43 301 7.0 17.0 0.00 0.00 0.00 76 1018.5
20190120150505 43 252 9.0 17.0 0.00 0.00 0.00 76 1018.4
20190120150006 43 292 6.0 15.0 0.00 0.00 0.00 77 1018.3
20190120145504 44 257 9.0 15.0 0.00 0.00 0.00 77 1018.4
20190120145006 44 237 9.0 14.0 0.00 0.00 0.00 77 1018.2
20190120144505 44 255 10.0 14.0 0.00 0.00 0.00 78 1018.2
20190120144006 44 248 8.0 14.0 0.00 0.00 0.00 78 1018.2
20190120143504 44 237 8.0 12.0 0.00 0.00 0.00 78 1018.1
20190120143005 43 254 6.0 12.0 0.00 0.00 0.00 79 1018.1
20190120142505 43 260 5.0 12.0 0.00 0.00 0.00 79 1018.1
20190120142006 43 256 5.0 10.0 0.00 0.00 0.00 80 1018.0
20190120141505 43 265 6.0 13.0 0.00 0.00 0.00 80 1018.0
20190120141005 42 242 8.0 14.0 0.00 0.00 0.00 80 1018.0
20190120140504 42 259 7.0 14.0 0.00 0.00 0.00 80 1018.0
20190120140007 41 253 7.0 14.0 0.00 0.00 0.00 81 1018.0
20190120135505 41 246 9.0 14.0 0.00 0.00 0.00 81 1018.0
20190120135005 41 262 8.0 15.0 0.00 0.00 0.00 80 1018.0
20190120134505 41 258 9.0 15.0 0.00 0.00 0.00 80 1017.9
20190120134006 41 261 10.0 14.0 0.00 0.00 0.00 80 1018.0
20190120133505 41 272 9.0 14.0 0.00 0.00 0.00 80 1017.9
20190120133005 41 266 9.0 14.0 0.00 0.00 0.00 80 1017.9
20190120132504 41 262 9.0 13.0 0.00 0.00 0.00 80 1017.8
20190120132005 41 264 9.0 13.0 0.00 0.00 0.00 80 1017.8
20190120131505 41 262 7.0 13.0 0.00 0.00 0.00 81 1017.8
20190120131005 41 269 7.0 12.0 0.00 0.00 0.00 80 1017.7
20190120130504 41 270 4.0 12.0 0.00 0.00 0.00 81 1017.7
20190120130006 41 261 7.0 12.0 0.00 0.00 0.00 81 1017.7
20190120125505 41 262 5.0 12.0 0.00 0.00 0.00 81 1017.7
20190120125005 40 257 6.0 12.0 0.00 0.00 0.00 81 1017.7
20190120124505 40 260 6.0 12.0 0.00 0.00 0.00 80 1017.7
20190120124005 40 263 7.0 12.0 0.00 0.00 0.00 80 1017.6
20190120123505 40 258 6.0 12.0 0.00 0.00 0.00 81 1017.6
20190120123005 40 265 5.0 14.0 0.00 0.00 0.00 80 1017.6
20190120122506 40 265 9.0 15.0 0.00 0.00 0.00 80 1017.5
20190120122005 40 261 6.0 15.0 0.00 0.00 0.00 80 1017.5
20190120121505 40 289 6.0 15.0 0.00 0.00 0.00 81 1017.4
20190120121005 40 257 4.0 7.0 0.00 0.00 0.00 80 1017.3
20190120120505 40 253 5.0 7.0 0.00 0.00 0.00 81 1017.2
20190120120006 40 229 4.0 10.0 0.00 0.00 0.00 80 1017.1
20190120115504 39 269 5.0 10.0 0.00 0.00 0.00 81 1017.1
20190120115006 39 263 6.0 13.0 0.00 0.00 0.00 81 1017.0
20190120114506 39 307 7.0 13.0 0.00 0.00 0.00 81 1017.0
20190120114005 39 297 7.0 12.0 0.00 0.00 0.00 80 1017.0
20190120113505 39 292 3.0 12.0 0.00 0.00 0.00 80 1017.0
20190120113005 39 267 6.0 10.0 0.00 0.00 0.00 80 1017.0
20190120112505 38 276 5.0 9.0 0.00 0.00 0.00 79 1017.0
20190120112005 38 256 5.0 9.0 0.00 0.00 0.00 79 1016.9
20190120111504 37 234 2.0 3.0 0.00 0.00 0.00 79 1016.9
20190120111005 37 234 2.0 6.0 0.00 0.00 0.00 79 1016.9
20190120110505 37 234 3.0 6.0 0.00 0.00 0.00 79 1016.8
20190120110004 37 239 3.0 6.0 0.00 0.00 0.00 79 1016.8
20190120105505 37 233 4.0 6.0 0.00 0.00 0.00 80 1016.7
20190120105006 36 234 3.0 6.0 0.00 0.00 0.00 80 1016.7
20190120104508 36 212 3.0 7.0 0.00 0.00 0.00 80 1016.7
20190120104005 36 232 2.0 7.0 0.00 0.00 0.00 79 1016.7
20190120103504 36 236 2.0 3.0 0.00 0.00 0.00 79 1016.6
20190120103005 36 244 1.0 3.0 0.00 0.00 0.00 80 1016.5
20190120102505 36 244 2.0 3.0 0.00 0.00 0.00 80 1016.5
20190120102005 36 248 2.0 3.0 0.00 0.00 0.00 80 1016.5
20190120101505 36 248 1.0 3.0 0.00 0.00 0.00 80 1016.5
20190120101005 36 248 1.0 3.0 0.00 0.00 0.00 80 1016.4
20190120100505 36 265 1.0 3.0 0.00 0.00 0.00 80 1016.4
20190120100005 36 266 2.0 3.0 0.00 0.00 0.00 80 1016.3
20190120095505 36 266 1.0 8.0 0.00 0.00 0.00 79 1016.2
20190120095005 36 266 3.0 9.0 0.00 0.00 0.00 79 1016.1
20190120094506 36 310 3.0 10.0 0.00 0.00 0.00 79 1016.3
20190120094005 36 335 5.0 10.0 0.00 0.00 0.00 79 1016.2
20190120093505 36 287 5.0 9.0 0.00 0.00 0.00 79 1016.3
20190120093007 35 277 3.0 9.0 0.00 0.00 0.00 79 1016.2
20190120092505 35 308 3.0 9.0 0.00 0.00 0.00 79 1016.2
20190120092004 35 325 5.0 9.0 0.00 0.00 0.00 79 1016.1
20190120091505 35 309 4.0 9.0 0.00 0.00 0.00 79 1016.0
20190120091005 35 307 5.0 9.0 0.00 0.00 0.00 79 1016.0
20190120090505 35 278 4.0 10.0 0.00 0.00 0.00 79 1016.0
20190120090005 35 285 6.0 10.0 0.00 0.00 0.00 79 1015.9
20190120085505 35 299 4.0 8.0 0.00 0.00 0.00 79 1015.8
20190120085004 35 282 5.0 10.0 0.00 0.00 0.00 79 1015.7
20190120084504 35 293 5.0 10.0 0.00 0.00 0.00 79 1015.7
20190120084005 35 268 3.0 7.0 0.00 0.00 0.00 79 1015.7
20190120083505 35 279 3.0 7.0 0.00 0.00 0.00 79 1015.5
20190120083005 35 308 3.0 7.0 0.00 0.00 0.00 79 1015.4
20190120082506 35 304 3.0 6.0 0.00 0.00 0.00 80 1015.4
20190120082007 35 285 2.0 7.0 0.00 0.00 0.00 80 1015.3
20190120081505 35 298 4.0 8.0 0.00 0.00 0.00 80 1015.2
20190120081005 35 266 2.0 8.0 0.00 0.00 0.00 80 1015.1
20190120080504 35 256 3.0 8.0 0.00 0.00 0.00 80 1015.1
20190120080005 35 287 2.0 8.0 0.00 0.00 0.00 80 1014.9
20190120075504 35 285 6.0 8.0 0.00 0.00 0.00 80 1015.0
20190120075006 35 276 3.0 8.0 0.00 0.00 0.00 79 1014.9
20190120074505 35 279 4.0 7.0 0.00 0.00 0.00 79 1014.9
20190120074005 35 282 5.0 7.0 0.00 0.00 0.00 79 1014.8
20190120073504 35 279 2.0 9.0 0.00 0.00 0.00 79 1014.9
20190120073005 35 303 3.0 9.0 0.00 0.00 0.00 79 1014.8
20190120072505 35 295 4.0 9.0 0.00 0.00 0.00 80 1014.8
20190120072005 35 307 5.0 8.0 0.00 0.00 0.00 80 1014.7
20190120071505 35 266 3.0 9.0 0.00 0.00 0.00 80 1014.7
20190120071005 35 265 5.0 9.0 0.00 0.00 0.00 80 1014.6
20190120070505 35 244 3.0 8.0 0.00 0.00 0.00 80 1014.6
20190120070004 34 279 3.0 8.0 0.00 0.00 0.00 80 1014.5
20190120065508 34 286 4.0 8.0 0.00 0.00 0.00 80 1014.4
20190120065005 34 299 4.0 8.0 0.00 0.00 0.00 80 1014.3
20190120064505 34 254 3.0 7.0 0.00 0.00 0.00 80 1014.3
20190120064005 34 265 2.0 3.0 0.00 0.00 0.00 80 1014.2
20190120063505 34 265 2.0 7.0 0.00 0.00 0.00 80 1014.2
20190120063007 34 295 3.0 7.0 0.00 0.00 0.00 80 1014.1
20190120062506 34 271 3.0 6.0 0.00 0.00 0.00 80 1014.0
20190120062005 34 337 3.0 10.0 0.00 0.00 0.00 80 1014.0
20190120061505 34 292 3.0 10.0 0.00 0.00 0.00 80 1014.0
20190120061005 34 259 5.0 9.0 0.00 0.00 0.00 80 1014.0
20190120060504 34 256 7.0 9.0 0.00 0.00 0.00 81 1014.0
20190120060005 34 250 5.0 9.0 0.00 0.00 0.00 81 1014.0
20190120055505 34 272 6.0 10.0 0.00 0.00 0.00 81 1014.0
20190120055007 34 288 7.0 10.0 0.00 0.00 0.00 81 1013.9
20190120054504 34 249 3.0 8.0 0.00 0.00 0.00 81 1013.9
20190120054005 34 255 3.0 7.0 0.00 0.00 0.00 81 1013.9
20190120053504 34 285 2.0 7.0 0.00 0.00 0.00 81 1013.9
20190120053005 35 283 2.0 9.0 0.00 0.00 0.00 81 1013.8
20190120052505 35 265 5.0 9.0 0.00 0.00 0.00 81 1013.8